Change the Weather History Date:

Thursday, November 15, 2012

  Actual Average (KJAX) Record (KJAX)
Temperature  
Mean Temperature 54 °F 62 °F  
Max Temperature 57 °F 74 °F 85 °F (1958)
Min Temperature 50 °F 51 °F 29 °F (1969)
Degree Days  
Heating Degree Days 12 5  
Month to date heating degree days 53  
Since 1 July heating degree days 81  
Cooling Degree Days 0 2  
Month to date cooling degree days 38  
Year to date cooling degree days 2621  
Growing Degree Days 4 (Base 50)    
Moisture  
Dew Point 53 °F    
Average Humidity 96    
Maximum Humidity 100    
Minimum Humidity 82    
Precipitation  
Precipitation 0.00 in 0.07 in 1.50 in (1916)
Month to date precipitation 1.10  
Year to date precipitation 48.58  
Snow  
Snow 0.00 in 0.00 in 0.00 in (2001)
Month to date snowfall 0.0  
Since 1 July snowfall 0.0  
Since 1 September snowfall 0.0  
Snow Depth -    
Sea Level Pressure  
Sea Level Pressure 30.18 in    
Wind  
Wind Speed 6 mph (North)    
Max Wind Speed 14 mph    
Max Gust Speed -    
Visibility 3 miles    
Events Fog    
T = Trace of Precipitation, MM = Missing Value Source: NWS Daily Summary

Daily Weather History Graph

Daily Weather History Graph

Search for Another Location

Airport or City:

Trip Planner

Search our weather history database for the weather conditions in past years. The results will help you decide how hot, cold, wet, or windy it might be!

Date:

Astronomy

Nov. 15, 2012 Rise Set
Actual Time 6:53 AM EST 5:30 PM EST
Civil Twilight 6:27 AM EST 5:56 PM EST
Nautical Twilight 5:58 AM EST 6:25 PM EST
Astronomical Twilight 5:30 AM EST 6:53 PM EST
Moon 8:42 AM EST (11/15) 7:25 PM EST (11/15)
Length of Visible Light 11h 28m
Length of Day
10h 37m
Waxing Crescent, 5% of the Moon is Illuminated
Nov 15
Waxing Crescent
Nov 20
First Quarter
Nov 28
Full
Dec 6
Last Quarter
Dec 13
New

Hourly Weather History & Observations

Time (EST) Temp. Dew Point Humidity Pressure Visibility Wind Dir Wind Speed Gust Speed Precip Events Conditions
12:15 AM 55.4 °F 55.4 °F 100% 30.17 in 2.0 mi North 5.8 mph - N/A   Overcast
12:35 AM 55.4 °F 55.4 °F 100% 30.17 in 1.2 mi North 5.8 mph - N/A   Overcast
12:55 AM 55.4 °F 55.4 °F 100% 30.16 in 1.0 mi North 4.6 mph - N/A   Overcast
1:15 AM 55.4 °F 55.4 °F 100% 30.15 in 0.8 mi North 4.6 mph - N/A   Overcast
1:35 AM 55.4 °F 55.4 °F 100% 30.15 in 0.5 mi North 4.6 mph - N/A Fog Fog
1:55 AM 55.4 °F 55.4 °F 100% 30.15 in 0.5 mi NNW 8.1 mph - N/A Fog Fog
2:15 AM 55.4 °F 55.4 °F 100% 30.15 in 0.5 mi NW 6.9 mph - N/A Fog Fog
2:35 AM 55.4 °F 55.4 °F 100% 30.15 in 0.5 mi NNW 6.9 mph - N/A Fog Fog
2:55 AM 53.6 °F 53.6 °F 100% 30.15 in 0.5 mi NNW 8.1 mph - N/A Fog Fog
3:15 AM 53.6 °F 53.6 °F 100% 30.15 in 0.8 mi NW 5.8 mph - N/A   Overcast
3:35 AM 53.6 °F 53.6 °F 100% 30.15 in 0.8 mi NNW 8.1 mph - N/A   Overcast
3:55 AM 53.6 °F 53.6 °F 100% 30.14 in 0.8 mi NNW 8.1 mph - N/A   Overcast
4:15 AM 53.6 °F 53.6 °F 100% 30.14 in 0.8 mi NNW 8.1 mph - N/A   Overcast
4:35 AM 53.6 °F 53.6 °F 100% 30.15 in 1.2 mi NNW 9.2 mph - N/A   Overcast
4:55 AM 53.6 °F 53.6 °F 100% 30.15 in 1.2 mi NW 9.2 mph - N/A   Overcast
5:15 AM 53.6 °F 53.6 °F 100% 30.15 in 1.2 mi NNW 6.9 mph - N/A   Overcast
6:50 AM 51.8 °F 51.8 °F 100% 30.17 in 1.5 mi North 9.2 mph - N/A   Overcast
7:50 AM 50.0 °F 50.0 °F 100% 30.19 in - North 6.9 mph - N/A   Overcast
8:50 AM 50.0 °F 50.0 °F 100% 30.21 in - North 13.8 mph - N/A   Overcast
9:50 AM 50.0 °F 50.0 °F 100% 30.23 in - North 6.9 mph - N/A   Overcast
10:50 AM 50.0 °F 50.0 °F 100% 30.22 in - North 8.1 mph - N/A   Overcast
12:50 PM 53.6 °F 50.0 °F 88% 30.18 in - NNE 5.8 mph - N/A   Overcast
1:50 PM 55.4 °F 50.0 °F 82% 30.16 in - NNW 4.6 mph - N/A   Overcast
2:50 PM 57.2 °F 53.6 °F 88% 30.15 in - North 4.6 mph - N/A   Overcast
3:50 PM 57.2 °F 53.6 °F 88% 30.15 in - Calm Calm - N/A   Overcast
5:50 PM 57.2 °F 53.6 °F 88% 30.17 in - ENE 5.8 mph - N/A   Overcast
6:50 PM 57.2 °F 53.6 °F 88% 30.18 in - NNE 5.8 mph - N/A   Overcast
7:50 PM 55.4 °F 53.6 °F 94% 30.19 in - North 5.8 mph - N/A   Overcast
8:55 PM 53.6 °F 51.8 °F 94% 30.20 in 8.0 mi North 6.9 mph - N/A   Overcast
9:15 PM 53.6 °F 51.8 °F 94% 30.21 in 9.0 mi NNW 8.1 mph - N/A   Overcast
9:35 PM 53.6 °F 51.8 °F 94% 30.21 in 7.0 mi North 6.9 mph - N/A   Overcast
9:55 PM 53.6 °F 51.8 °F 94% 30.21 in 6.0 mi North 6.9 mph - N/A   Overcast
10:15 PM 53.6 °F 51.8 °F 94% 30.21 in 4.0 mi North 5.8 mph - N/A   Overcast
10:35 PM 53.6 °F 51.8 °F 94% 30.21 in 5.0 mi North 4.6 mph - N/A   Overcast
10:55 PM 53.6 °F 51.8 °F 94% 30.21 in 7.0 mi North 6.9 mph - N/A   Overcast
11:15 PM 53.6 °F 51.8 °F 94% 30.21 in 5.0 mi North 8.1 mph - N/A   Overcast
11:35 PM 51.8 °F 51.8 °F 100% 30.21 in 7.0 mi North 5.8 mph - N/A   Overcast
11:55 PM 51.8 °F 50.0 °F 94% 30.21 in 5.0 mi North 4.6 mph - N/A   Overcast